Weather History for KFAR - March, 2011

Change the Weather History Date:

Sunday, March 13, 2011

  Actual Average Record
Temperature  
Mean Temperature 11 °F 26 °F  
Max Temperature 18 °F 34 °F 64 °F (1911)
Min Temperature 4 °F 18 °F -28 °F (1896)
Degree Days  
Heating Degree Days 54 39  
Month to date heating degree days 676 543  
Since 1 July heating degree days 7579 7221  
Cooling Degree Days 0 0  
Month to date cooling degree days 0 0  
Year to date cooling degree days 0 0  
Moisture  
Dew Point 4 °F    
Average Humidity 77    
Maximum Humidity 87    
Minimum Humidity 67    
Precipitation  
Precipitation T in 0.04 in 0.45 in (1997)
Month to date precipitation 0.53 0.51  
Year to date precipitation 1.51 1.82  
Snow  
Snow 0.20 in 0.40 in 7.00 in (1997)
Month to date snowfall 7.0 4.7  
Since 1 July snowfall 74.0 42.7  
Snow Depth 13.00 in    
Sea Level Pressure  
Sea Level Pressure 30.47 in    
Wind  
Wind Speed 7 mph (West)    
Max Wind Speed 18 mph    
Max Gust Speed 25 mph    
Visibility 7 miles    
Events Snow    
T = Trace of Precipitation, MM = Missing Value Source: NWS Daily Summary

Daily Weather History Graph

Daily Weather History Graph

Search for Another Location

Airport or City:

Trip Planner

Search our weather history database for the weather conditions in past years. The results will help you decide how hot, cold, wet, or windy it might be!

Date:

Astronomy

Mar. 13, 2011 Rise Set
Actual Time 7:44 AM CDT 7:29 PM CDT
Civil Twilight 7:14 AM CDT 8:00 PM CDT
Nautical Twilight 6:39 AM CDT 8:35 PM CDT
Astronomical Twilight 6:03 AM CDT 9:11 PM CDT
Moon 12:22 PM CDT (3/13) 3:41 AM CDT (3/13)
Length of Visible Light 12h 45m
Length of Day
11h 45m
First Quarter, 58% of the Moon is Illuminated
Mar 13
First Quarter
Mar 19
Full
Mar 26
Last Quarter
Apr 3
New
Apr 11
First Quarter

Hourly Weather History & Observations

Time (CDT) Temp. Windchill Dew Point Humidity Pressure Visibility Wind Dir Wind Speed Gust Speed Precip Events Conditions
12:53 AM 5.0 °F -8.1 °F -0.9 °F 76% 30.45 in 7.0 mi North 8.1 mph - N/A   Overcast
1:53 AM 5.0 °F -6.9 °F -0.9 °F 76% 30.46 in 6.0 mi North 6.9 mph - N/A   Haze
3:53 AM 5.0 °F -6.9 °F -0.9 °F 76% 30.46 in 8.0 mi North 6.9 mph - N/A   Overcast
4:40 AM 5.0 °F -5.6 °F -0.4 °F 78% 30.40 in 10.0 mi North 5.8 mph - N/A   Overcast
4:53 AM 5.0 °F -5.6 °F -0.9 °F 76% 30.47 in 10.0 mi North 5.8 mph - N/A   Overcast
5:00 AM 5.0 °F -5.6 °F -0.4 °F 78% 30.40 in 10.0 mi North 5.8 mph - N/A   Overcast
5:53 AM 3.9 °F -5.3 °F -0.0 °F 84% 30.48 in 9.0 mi North 4.6 mph - N/A   Overcast
6:53 AM 3.9 °F - -0.9 °F 80% 30.49 in 9.0 mi Calm Calm - N/A   Overcast
7:53 AM 5.0 °F -5.6 °F 1.0 °F 84% 30.50 in 8.0 mi North 5.8 mph - N/A   Overcast
8:41 AM 5.0 °F - 1.4 °F 85% 30.45 in 2.0 mi Calm Calm - 0.00 in Snow Light Snow
8:53 AM 6.1 °F -0.9 °F 1.0 °F 80% 30.53 in 2.5 mi NNW 3.5 mph - 0.00 in Snow Light Snow
9:30 AM 6.8 °F - 1.4 °F 79% 30.47 in 1.8 mi Calm Calm - 0.00 in Snow Light Snow
9:41 AM 6.8 °F - 1.4 °F 79% 30.47 in 2.5 mi Calm Calm - 0.00 in Snow Light Snow
9:53 AM 7.0 °F - 1.9 °F 80% 30.54 in 1.8 mi Calm Calm - 0.00 in Snow Light Snow
10:38 AM 8.6 °F - 1.4 °F 73% 30.47 in 2.0 mi Calm Calm - 0.00 in Snow Light Snow
10:53 AM 9.0 °F - 1.9 °F 73% 30.54 in 1.8 mi Calm Calm - 0.00 in Snow Light Snow
11:06 AM 8.6 °F - 1.4 °F 73% 30.47 in 2.0 mi Calm Calm - 0.00 in Snow Light Snow
11:53 AM 10.9 °F - 3.0 °F 70% 30.53 in 2.5 mi Calm Calm - 0.00 in Snow Light Snow
12:05 PM 10.4 °F - 3.2 °F 73% 30.46 in 3.0 mi Calm Calm - 0.00 in   Haze
12:36 PM 12.2 °F - 3.2 °F 67% 30.46 in 4.0 mi Calm Calm - 0.00 in   Haze
12:53 PM 12.9 °F 6.9 °F 3.9 °F 67% 30.54 in 6.0 mi West 3.5 mph - 0.00 in   Haze
1:10 PM 12.2 °F - 3.2 °F 67% 30.47 in 10.0 mi Calm Calm - N/A   Overcast
1:53 PM 15.1 °F 7.7 °F 6.1 °F 68% 30.54 in 5.0 mi WNW 4.6 mph - N/A   Haze
2:26 PM 14.0 °F 5.1 °F 6.8 °F 73% 30.46 in 7.0 mi WNW 5.8 mph - N/A   Scattered Clouds
2:53 PM 15.1 °F 9.4 °F 7.0 °F 70% 30.51 in 10.0 mi WNW 3.5 mph - N/A   Scattered Clouds
3:53 PM 16.0 °F 3.6 °F 9.0 °F 74% 30.50 in 10.0 mi SSW 10.4 mph - N/A   Clear
4:53 PM 16.0 °F 3.6 °F 9.0 °F 74% 30.50 in 10.0 mi SSW 10.4 mph - N/A   Partly Cloudy
5:53 PM 16.0 °F 3.6 °F 9.0 °F 74% 30.49 in 10.0 mi South 10.4 mph - N/A   Clear
6:53 PM 16.0 °F 0.6 °F 9.0 °F 74% 30.48 in 10.0 mi South 16.1 mph - N/A   Clear
7:53 PM 14.0 °F -0.2 °F 8.1 °F 77% 30.47 in 10.0 mi South 12.7 mph - N/A   Clear
8:53 PM 12.9 °F -1.6 °F 8.1 °F 81% 30.46 in 10.0 mi SSE 12.7 mph - N/A   Clear
9:53 PM 12.9 °F -3.4 °F 8.1 °F 81% 30.44 in 10.0 mi South 16.1 mph - N/A   Clear
10:53 PM 12.9 °F -2.2 °F 7.0 °F 77% 30.41 in 10.0 mi South 13.8 mph - N/A   Clear
11:53 PM 12.9 °F -1.6 °F 7.0 °F 77% 30.39 in 10.0 mi South 12.7 mph - N/A   Clear
12:53 AM 12.9 °F -3.4 °F 7.0 °F 77% 30.36 in 10.0 mi South 16.1 mph - N/A   Clear